This is the latest recevied weather packets stored in our database for station/object DL5ARK. If no packets are shown the sender has not sent any weather packets the latest 10 day(s).
| Time | Temp. | Humidity | Pressure | Rain* | Wind** | Luminosity | Snow |
|---|---|---|---|---|---|---|---|
| 1776965627 | 15.56° C | 34% | 1009.2 hPa | 0 mm | - | - | - |
| 1776965450 | 16.11° C | 31% | 1009.2 hPa | 0 mm | - | - | - |
| 1776965268 | 16.11° C | 34% | 1009.2 hPa | 0 mm | - | - | - |
| 1776965087 | 16.11° C | 33% | 1009.2 hPa | 0 mm | - | - | - |
| 1776964548 | 17.22° C | 32% | 1009.2 hPa | 0 mm | - | - | - |
| 1776964368 | 16.67° C | 32% | 1009.2 hPa | 0 mm | - | - | - |
| 1776964188 | 17.22° C | 31% | 1009.2 hPa | 0 mm | - | - | - |
| 1776964008 | 17.78° C | 33% | 1008.9 hPa | 0 mm | - | - | - |
| 1776963828 | 17.78° C | 32% | 1009.2 hPa | 0 mm | - | - | - |
| 1776963467 | 18.33° C | 32% | 1009.2 hPa | 0 mm | - | - | - |
| 1776963288 | 17.78° C | 31% | 1009.2 hPa | 0 mm | - | - | - |
| 1776963107 | 18.33° C | 29% | 1009.2 hPa | 0 mm | - | - | - |
| 1776962927 | 18.89° C | 30% | 1009.2 hPa | 0 mm | - | - | - |
| 1776962747 | 19.44° C | 32% | 1009.2 hPa | 0 mm | - | - | - |
| 1776962571 | 19.44° C | 32% | 1009.2 hPa | 0 mm | - | - | - |
| 1776962388 | 20.56° C | 30% | 1009.2 hPa | 0 mm | - | - | - |
| 1776962208 | 21.11° C | 31% | 1009.2 hPa | 0 mm | - | - | - |
| 1776962028 | 20.56° C | 29% | 1009.2 hPa | 0 mm | - | - | - |
| 1776961848 | 21.67° C | 30% | 1009.2 hPa | 0 mm | - | - | - |
| 1776961668 | 21.11° C | 30% | 1009.2 hPa | 0 mm | - | - | - |
| 1776961488 | 22.22° C | 30% | 1009.2 hPa | 0 mm | - | - | - |
| 1776961311 | 22.78° C | 30% | 1009.2 hPa | 0 mm | - | - | - |
| 1776961128 | 22.78° C | 31% | 1009.2 hPa | 0 mm | - | - | - |
| 1776960947 | 22.22° C | 29% | 1009.2 hPa | 0 mm | - | - | - |
| 1776960768 | 21.11° C | 28% | 1009.2 hPa | 0 mm | - | - | - |
* Rain latest hour (hover to see other rain measurements)
** Current wind speed in m/s (hover to see current wind gust speed)